Regional Weather Roundup
Issued by NWS Newport/Morehead, NC

Current Version | Previous Version | Graphics & Text | Print | Product List | Glossary On
Versions: 1 2 3 4 5 6 7 8 9 10 11 12 13 14 15 16 17 18 19 20 21 22 23 24 25 26 27 28 29 30 31 32 33 34 35 36 37 38 39 40 41 42 43 44 45 46 47 48 49 50
000 ASUS42 KMHX 030925 RWRMHX WEATHER ROUNDUP FOR EASTERN NORTH CAROLINA NATIONAL WEATHER SERVICE NEWPORT/MOREHEAD CITY NC 500 AM EDT MON AUG 03 2015 NOTE: "FAIR" INDICATES FEW OR NO CLOUDS BELOW 12,000 FEET WITH NO SIGNIFICANT WEATHER AND/OR OBSTRUCTIONS TO VISIBILITY NCZ015>017-031-032-045>047-102-103-031000- NORTH COAST CITY SKY/WX TMP DP RH WIND PRES REMARKS EDENTON CLEAR 76 72 87 SW5 29.91S ELIZABETH CITY CLEAR 73 72 96 SW5 29.90F KITTY HAWK SUNNY 77 72 84 SW3 29.90S MANTEO CLEAR 77 73 87 SW6 29.91F $$ NCZ045>047-081-094-103-104-031000- CENTRAL COAST CITY SKY/WX TMP DP RH WIND PRES REMARKS FRISCO LGT RAIN 74 71 91 SW9 29.92F SWANQUARTER N/A 75 N/A N/A N1 29.88S $$ NCZ095-097-098-100-101-031000- SOUTHERN COAST CITY SKY/WX TMP DP RH WIND PRES REMARKS BEAUFORT HVY RAIN 76 74 93 SW15G25 29.93R FOG CEDAR ISLAND N/A 75 N/A N/A S7G13 29.97R JACKSONVILLE LGT RAIN 74 72 93 S5 29.92S PINEY ISLAND FLURRIES N/A N/A N/A SW9 29.91F WILMINGTON CLOUDY 75 72 90 CALM 29.91F $$ NCZ011>013-027>030-043-044-078>080-089-090>093-098-031000- COASTAL PLAIN CITY SKY/WX TMP DP RH WIND PRES REMARKS AHOSKIE PTCLDY 68 67 97 CALM 29.91S CLINTON PTCLDY 74 74 99 CALM 29.92R ELIZABETHTOWN PTCLDY 75 73 93 CALM 29.91S GOLDSBORO PTCLDY 73 72 96 SE6 29.89F GREENVILLE PTCLDY 73 72 94 S3 29.93S HAVELOCK LGT RAIN 75 73 93 SW7 29.93S KENANSVILLE MOCLDY 72 71 96 CALM 29.93S KINSTON PTCLDY 72 71 96 CALM 29.92F NEW BERN CLOUDY 75 72 90 SW5 29.93F RICHLANDS CLOUDY 73 68 83 SW6 29.92S ROCKY MOUNT CLEAR 70 68 93 CALM 29.91S FOG WASHINGTON PTCLDY 71 70 96 CALM 29.91F WHITEVILLE CLOUDY 75 73 92 CALM 29.91S $$ AMZ130-135-150-152-154-156-158-170-250-252-270-ANZ085-086-088-633-658-670-031000- MARINE OBSERVATIONS STATION/POSITION TIME TEMP WIND PRES WAVE SWELL AIR SEA DIR/SP/G HT/PER HT/PER (UTC) (F) (DEG/KT/KT) (MB) (FT/S) (FT/S) CHESAPEAKE LIGHT 0900 78 220/ 11/ 12 1012.7 64 E VA BEACH 0850 81 81 230/ 16/ 19 1011.8 4/ 5 2/ 7 DUCK 0900 79 74 230/ 11/ 12 1011.8 2 E DUCK 0811 79 N/A 2/11 2/11 OREGON INLET 0900 79 85 260/ 3/ 5 1012.8 13E OREGON INLT 0800 80 N/A 3/11 2/11 HATTERAS CG 0900 75 82 1012.8 DIAMOND BUOY 0850 76 85 240/ 14/ 17 1013.4 4/ 6 2/ 7 CAPE LOOKOUT 0900 77 250/ 13/ 16 1013.0 BEAUFORT LAB 0900 77 82 1012.7 30 SE NEW RVR IN NOT AVBL 27 SE WRIGHTSVLE 0900 76 82 270/ 10/ 14 N/A 5 SE WRIGHTSVLE 0808 78 83 240/ 23/ 31 1013.0 225 S CAPE HAT 0850 82 81 200/ 14/ 17 1015.6 5/ 6 2/11 41 SE CHARLESTON 0850 83 83 210/ 14/ 16 1012.2 5/ 7 3/ 7 $$

USA.gov is the U.S. government's official web portal to all federal, state and local government web resources and services.